Weather History for Sydney Airport, New South Wales

Change the Weather History Date:

Saturday, January 25, 2014

  Actual Average Record
Temperature  
Mean Temperature 69 °F -  
Max Temperature 71 °F 80 °F - ()
Min Temperature 67 °F 66 °F - ()
Cooling Degree Days 4    
Growing Degree Days 19 (Base 50)    
Moisture  
Dew Point 57 °F    
Average Humidity 63    
Maximum Humidity 88    
Minimum Humidity 37    
Precipitation  
Precipitation 0.00 in 0.15 in - ()
Sea Level Pressure  
Sea Level Pressure 29.92 in    
Wind  
Wind Speed 16 mph ()    
Max Wind Speed 29 mph    
Max Gust Speed 33 mph    
Visibility 7.6 miles    
Events Rain    
T = Trace of Precipitation, MM = Missing Value Source: Averaged Metar Reports

Daily Weather History Graph

Daily Weather History Graph

Search for Another Location

Airport:

Trip Planner

Search our weather history database for the weather conditions in past years. The results will help you decide how hot, cold, wet, or windy it might be!

Date:

Astronomy

Jan. 25, 2014 Rise Set
Actual Time 6:09 AM AEDT 8:05 PM AEDT
Civil Twilight 5:41 AM AEDT 8:33 PM AEDT
Nautical Twilight 5:07 AM AEDT 9:06 PM AEDT
Astronomical Twilight 4:32 AM AEDT 9:42 PM AEDT
Moon 12:28 AM AEDT (1/25) 2:17 PM AEDT (1/25)
Length of Visible Light 14h 51m
Length of Day
13h 56m
Last Quarter, 41% of the Moon is Illuminated
Jan 25
Last Quarter
Jan 31
New
Feb 7
First Quarter
Feb 15
Full
Feb 23
Last Quarter

Hourly Weather History & Observations

Time (AEDT) Temp. Dew Point Humidity Pressure Visibility Wind Dir Wind Speed Gust Speed Precip Events Conditions
12:00 AM 69 °F 64 °F 79% 29.74 in 12 mi WSW 10.4 mph - - Rain Light Rain
12:00 AM 68.0 °F 64.4 °F 88% 29.71 in 6.2 mi WSW 10.4 mph - N/A Rain Light Rain
12:30 AM 69.8 °F 64.4 °F 83% 29.71 in - West 9.2 mph - N/A   Clear
1:00 AM 69 °F 64 °F 79% 29.74 in - WSW 10.4 mph - -  
1:00 AM 69.8 °F 64.4 °F 83% 29.74 in 6.2 mi WSW 10.4 mph - N/A   Mostly Cloudy
1:30 AM 69.8 °F 62.6 °F 78% 29.74 in 6.2 mi SSW 20.7 mph - N/A   Mostly Cloudy
2:00 AM 69 °F 63 °F 76% 29.75 in - SSW 19.6 mph - -  
2:00 AM 69.8 °F 62.6 °F 78% 29.74 in 6.2 mi SSW 19.6 mph - N/A   Mostly Cloudy
2:30 AM 69.8 °F 64.4 °F 83% 29.74 in 6.2 mi SSW 17.3 mph - N/A   Mostly Cloudy
3:00 AM 69 °F 62 °F 73% 29.75 in 16 mi SSW 15.0 mph - -   Partly Cloudy
3:00 AM 68.0 °F 62.6 °F 83% 29.74 in - SSW 15.0 mph - N/A   Clear
3:30 AM 68.0 °F 62.6 °F 83% 29.74 in - SSW 17.3 mph - N/A   Clear
4:00 AM 68 °F 62 °F 77% 29.75 in - SSW 15.0 mph - -  
4:00 AM 68.0 °F 62.6 °F 83% 29.74 in 6.2 mi SSW 15.0 mph - N/A   Partly Cloudy
4:30 AM 68.0 °F 62.6 °F 83% 29.74 in 6.2 mi SSW 13.8 mph - N/A   Partly Cloudy
5:00 AM 68 °F 62 °F 74% 29.78 in - SSW 12.7 mph - -  
5:00 AM 68.0 °F 62.6 °F 83% 29.77 in 6.2 mi SSW 12.7 mph - N/A   Partly Cloudy
5:30 AM 68.0 °F 62.6 °F 83% 29.77 in 6.2 mi SSW 13.8 mph - N/A   Scattered Clouds
6:00 AM 68 °F 62 °F 74% 29.80 in 19 mi SSW 12.7 mph - -   Partly Cloudy
6:00 AM 68.0 °F 62.6 °F 83% 29.80 in 6.2 mi SSW 12.7 mph - N/A   Partly Cloudy
6:30 AM 68.0 °F 60.8 °F 78% 29.80 in 6.2 mi SSW 10.4 mph - N/A   Partly Cloudy
7:00 AM 68 °F 62 °F 75% 29.84 in - SSW 13.8 mph - -  
7:00 AM 68.0 °F 62.6 °F 83% 29.83 in 6.2 mi SSW 13.8 mph - N/A   Partly Cloudy
7:30 AM 69.8 °F 62.6 °F 78% 29.83 in 6.2 mi SSW 12.7 mph - N/A   Partly Cloudy
8:00 AM 69 °F 61 °F 69% 29.87 in - SSW 15.0 mph - -  
8:00 AM 69.8 °F 60.8 °F 73% 29.86 in 6.2 mi SSW 15.0 mph - N/A   Scattered Clouds
8:30 AM 69.8 °F 60.8 °F 73% 29.89 in 6.2 mi South 17.3 mph - N/A   Partly Cloudy
9:00 AM 70 °F 62 °F 68% 29.89 in 19 mi South 19.6 mph - -   Partly Cloudy
9:00 AM 69.8 °F 62.6 °F 78% 29.89 in 6.2 mi South 19.6 mph - N/A   Scattered Clouds
9:30 AM 69.8 °F 59.0 °F 68% 29.89 in 6.2 mi South 20.7 mph - N/A   Mostly Cloudy
10:00 AM 70 °F 57 °F 55% 29.91 in - South 20.7 mph - -  
10:00 AM 69.8 °F 57.2 °F 64% 29.89 in 6.2 mi South 20.7 mph - N/A   Mostly Cloudy
10:30 AM 69.8 °F 57.2 °F 64% 29.92 in 6.2 mi South 19.6 mph - N/A   Mostly Cloudy
11:00 AM 70 °F 58 °F 56% 29.93 in - South 20.7 mph - -  
11:00 AM 69.8 °F 57.2 °F 64% 29.92 in 6.2 mi South 20.7 mph - N/A   Scattered Clouds
11:30 AM 69.8 °F 57.2 °F 64% 29.92 in 6.2 mi South 23.0 mph - N/A   Scattered Clouds
12:00 PM 71 °F 56 °F 48% 29.95 in 12 mi South 23.0 mph - -   Partly Cloudy
12:00 PM 71.6 °F 55.4 °F 57% 29.95 in 6.2 mi South 23.0 mph - N/A   Scattered Clouds
12:03 PM 71.6 °F 55.4 °F 57% 29.95 in 6.2 mi South 21.9 mph 33.4 mph N/A   Scattered Clouds
1:00 PM 71 °F 53 °F 43% 29.96 in - South 26.5 mph - -  
1:00 PM 69.8 °F 53.6 °F 56% 29.95 in 6.2 mi South 26.5 mph - N/A   Scattered Clouds
1:30 PM 69.8 °F 51.8 °F 53% 29.95 in 6.2 mi South 28.8 mph - N/A   Scattered Clouds
2:00 PM 71 °F 55 °F 47% 29.97 in - South 26.5 mph - -  
2:00 PM 71.6 °F 55.4 °F 57% 29.95 in 6.2 mi South 26.5 mph - N/A   Scattered Clouds
2:30 PM 71.6 °F 51.8 °F 50% 29.95 in 6.2 mi South 27.6 mph - N/A   Partly Cloudy
3:00 PM 71 °F 51 °F 39% 29.97 in 16 mi South 28.8 mph - -   Partly Cloudy
3:00 PM 71.6 °F 51.8 °F 50% 29.95 in 6.2 mi South 28.8 mph - N/A   Scattered Clouds
3:30 PM 69.8 °F 51.8 °F 53% 29.98 in 6.2 mi South 27.6 mph - N/A   Mostly Cloudy
4:00 PM 71 °F 50 °F 37% 29.99 in - South 27.6 mph - -  
4:00 PM 71.6 °F 50.0 °F 46% 29.98 in 6.2 mi South 27.6 mph - N/A   Mostly Cloudy
4:30 PM 69.8 °F 50.0 °F 49% 29.98 in 6.2 mi South 26.5 mph - N/A   Mostly Cloudy
5:00 PM 70 °F 51 °F 41% 30.00 in - South 26.5 mph - -  
5:00 PM 69.8 °F 51.8 °F 53% 29.98 in 6.2 mi South 26.5 mph - N/A   Mostly Cloudy
5:30 PM 69.8 °F 51.8 °F 53% 30.01 in 6.2 mi South 23.0 mph - N/A   Mostly Cloudy
6:00 PM 69 °F 53 °F 46% 30.02 in 16 mi South 23.0 mph - -   Partly Cloudy
6:00 PM 69.8 °F 53.6 °F 56% 30.01 in 6.2 mi South 23.0 mph - N/A   Mostly Cloudy
6:30 PM 69.8 °F 53.6 °F 56% 30.04 in 6.2 mi South 23.0 mph - N/A   Mostly Cloudy
7:00 PM 70 °F 51 °F 40% 30.05 in - SSE 20.7 mph - -  
7:00 PM 69.8 °F 51.8 °F 53% 30.04 in 6.2 mi SSE 20.7 mph - N/A   Mostly Cloudy
7:30 PM 69.8 °F 51.8 °F 53% 30.06 in 6.2 mi South 19.6 mph - N/A   Mostly Cloudy
8:00 PM 69 °F 52 °F 44% 30.09 in - South 19.6 mph - -  
8:00 PM 69.8 °F 51.8 °F 53% 30.06 in 6.2 mi South 19.6 mph - N/A   Mostly Cloudy
8:30 PM 69.8 °F 51.8 °F 53% 30.09 in 6.2 mi South 18.4 mph - N/A   Mostly Cloudy
9:00 PM 69 °F 53 °F 46% 30.12 in 16 mi SSE 17.3 mph - -   Partly Cloudy
9:00 PM 68.0 °F 53.6 °F 60% 30.09 in 6.2 mi SSE 17.3 mph - N/A   Mostly Cloudy
9:30 PM 68.0 °F 51.8 °F 56% 30.12 in 6.2 mi SSE 19.6 mph - N/A   Mostly Cloudy
10:00 PM 68 °F 53 °F 47% 30.15 in - SE 18.4 mph - -  
10:00 PM 68.0 °F 51.8 °F 56% 30.12 in 6.2 mi SE 18.4 mph - N/A Rain Light Rain Showers
10:30 PM 68.0 °F 53.6 °F 60% 30.15 in 6.2 mi SSE 19.6 mph - N/A   Mostly Cloudy
11:00 PM 68 °F 51 °F 45% 30.16 in - SSE 19.6 mph - -  
11:00 PM 68.0 °F 51.8 °F 56% 30.15 in 6.2 mi SSE 19.6 mph - N/A   Mostly Cloudy
11:30 PM 68.0 °F 53.6 °F 60% 30.15 in 6.2 mi SE 19.6 mph - N/A Rain Light Rain Showers